Simultaneous Nadir Overpasses (SNOs) Predictions

Prediction of SNOs between GOES-16 and AQUA Satellite Orbit:

Table of predicted SNOs for the next 14.0 days since TLE Epoch: 1/3/2020
Index Date Time (GOES-16) GOES-16 Lat,Lon AQUA Lat,Lon Distance(km) Time Diff (sec)
1 01/04/2020 06:44:14 0.03, -75.20 0.39, -76.81 183.26 80
2 01/06/2020 06:29:23 0.03, -75.20 -0.27, -73.85 153.83 80
3 01/06/2020 18:53:27 -0.04, -75.20 -0.87, -79.04 436.40 80
4 01/08/2020 06:17:11 0.03, -75.21 -0.87, -70.89 491.12 80
5 01/08/2020 18:41:16 -0.04, -75.21 -0.21, -76.08 99.05 80
6 01/10/2020 18:26:24 -0.04, -75.22 0.39, -73.12 238.46 80
7 01/11/2020 06:50:19 0.05, -75.22 0.70, -78.27 346.90 80
8 01/13/2020 06:35:28 0.04, -75.24 0.04, -75.32 9.39 80
9 01/15/2020 06:23:16 0.04, -75.26 -0.57, -72.36 329.62 80
10 01/15/2020 18:47:20 -0.05, -75.26 -0.57, -77.54 260.24 80
11 01/17/2020 18:32:29 -0.05, -75.29 0.11, -74.59 79.28 80




NCC Satellite Simultaneous Nadir Overpasses (SNOs) Prediction Service
